Location: Ladrillo (historical)
(32.8195°N, 117.2231°W)
Time: 03:25:24
(UTC+00:00)

deb Chang Zheng 4 - Pass Details

Date: 29 October 2020
Orbit: 602 x 625 km, 98.6° (Epoch: 26 November)

Event Time Altitude Azimuth Distance (km) Brightness Sun altitude
Rises 12:03:34 0° 20° (NNE) 2,862 7.2 -26.0°
Reaches altitude 10° 12:05:49 10° 26° (NNE) 1,957 6.4 -25.5°
Maximum altitude 12:09:55 46° 100° (E) 822 4.5 -24.6°
Drops below altitude 10° 12:14:00 10° 174° (S) 1,958 6.2 -23.8°
Sets 12:16:14 0° 180° (S) 2,862 7.0 -23.3°
